Content
SEND FEEDBACK

United States of America Flag

POINTE A LA HACHE, LOUISIANA


Home > North America > United States > Louisiana
Elevation: 4 feet     Latitude: 29 35N     Longitude: 089 50W

WEATHER
 
SELECT A DAY
Number of Records: 184,965;   Date Range: 1/1/95 - 3/22/16
 
SHARE

PRINT THIS DATA

[ ← Previous Day ]
WEATHER ALMANAC - JANUARY 21, 2013
[ Next Day → ]
[ °C ]   °F
Weather ElementAverageHighLow
Temperature50.1 °F66 °F (12:55 pm)39.9 °F (5:55 am)
Dewpoint40.3 °F46.9 °F (8:55 am)37 °F (5:55 am)
Humidity72.3 %89 % (1:55 am)34 % (12:55 pm)
Barometer30.19 in30.24 in (9:55 am)30.15 in (1:55 am)
Wind Speed1.4 mph8.1 mph (10:55 am)
Weather ElementAverage
Visibility6.8 mi
Wind DirectionNE (48.6 °)

Weather ElementTotal
Precipitation---
Heating Degree Days12.1 (Base 65)
Growing Degree Days3 (Base 50)
Averaged from 29 records on January 21, 2013
WEATHER CONDITIONS BREAKOUT
WIND DIRECTION BREAKOUT
WEATHER BY HOUR - JANUARY 21, 2013
[ °C ]   °F
Local TimeTemperatureDewpointHumidityBarometerVisibilityWind DirectionWind SpeedGust SpeedPrecipitationEventsConditions
12:23 AM44.6 °F41.0 °F87 %30.17 in0.2 miCalmFogFog
12:58 AM44.6 °F41.0 °F87 %30.16 in1.2 miCalmScattered Clouds
1:55 AM44.1 °F41.0 °F89 %30.15 in2.5 miCalmClear
1:58 AM42.8 °F39.2 °F87 %30.15 in1.8 miCalmPartly Cloudy
2:02 AM42.8 °F39.2 °F87 %30.15 in0.8 miCalmMist
2:44 AM42.8 °F39.2 °F87 %30.15 in3.0 miCalmScattered Clouds
2:50 AM42.8 °F39.2 °F87 %30.16 in2.5 miCalmMostly Cloudy
2:55 AM43.0 °F39.0 °F86 %30.16 inCalmMostly Cloudy
3:16 AM42.8 °F37.4 °F81 %30.16 in0.5 miCalmFogFog
3:28 AM42.8 °F39.2 °F87 %30.17 inCalmScattered Clouds
3:55 AM43.0 °F39.0 °F86 %30.16 inCalmClear
4:55 AM43.0 °F39.0 °F86 %30.17 in6.0 miCalmClear
5:55 AM39.9 °F37.0 °F89 %30.16 inCalmClear
6:55 AM42.1 °F39.0 °F89 %30.19 inCalmClear
7:55 AM48.0 °F43.0 °F83 %30.22 inNNW (330°)3.5 mphClear
8:55 AM55.0 °F46.9 °F74 %30.23 in8.0 miCalmClear
9:55 AM59.0 °F43.0 °F55 %30.24 in10.0 miNorth (10°)3.5 mphClear
10:55 AM63.0 °F39.0 °F41 %30.23 in10.0 miNorth (360°)8.1 mphClear
11:55 AM64.0 °F37.0 °F37 %30.21 in10.0 miNorth (10°)5.8 mphClear
12:55 PM66.0 °F37.0 °F34 %30.19 in10.0 miVariable4.6 mphClear
1:55 PM66.0 °F39.9 °F38 %30.17 in10.0 miNorth (360°)6.9 mphClear
3:55 PM64.9 °F39.0 °F39 %30.18 in10.0 miNorth (10°)3.5 mphClear
4:55 PM64.0 °F39.9 °F41 %30.18 in10.0 miNNW (330°)3.5 mphClear
5:55 PM55.0 °F42.1 °F62 %30.19 in10.0 miCalmClear
6:55 PM51.1 °F43.0 °F74 %30.20 in10.0 miCalmClear
7:55 PM51.1 °F43.0 °F74 %30.21 in10.0 miCalmClear
8:55 PM50.0 °F42.1 °F74 %30.22 in10.0 miCalmClear
9:55 PM48.9 °F42.1 °F77 %30.22 in10.0 miCalmClear
11:55 PM46.9 °F41.0 °F80 %30.22 in10.0 miCalmClear
Hourly data recorded from KNBG, located miles away from Pointe A La Hache, Louisiana




STORIES FROM OUR PARTNERS